Edson, Alberta

4:27 PM MDT on April 25, 2018 (GMT -0600)
Edson

Weather History for CYET - January, 2013

Change the Weather History Date:

Monday, January 14, 2013

  Actual Average Record
Temperature  
Mean Temperature 24 °F -  
Max Temperature 38 °F 19 °F 48 °F (2004)
Min Temperature 11 °F 0 °F -31 °F (2005)
Degree Days  
Heating Degree Days 40    
Moisture  
Dew Point 22 °F    
Average Humidity 78    
Maximum Humidity 93    
Minimum Humidity 49    
Precipitation  
Precipitation 0.03 in - - ()
Sea Level Pressure  
Sea Level Pressure 29.94 in    
Wind  
Wind Speed 6 mph ()    
Max Wind Speed 14 mph    
Max Gust Speed 24 mph    
Visibility 8.9 miles    
Events Rain , Snow    
Averages and records for this station are not official NWS values.
T = Trace of Precipitation, MM = Missing Value Source: Averaged Metar Reports

Daily Weather History Graph

Daily Weather History Graph

Search for Another Location

Airport or City:

Astronomy

Jan. 14, 2013 Rise Set
Actual Time 8:54 AM MST 4:55 PM MST
Civil Twilight 8:13 AM MST 5:36 PM MST
Nautical Twilight 7:29 AM MST 6:21 PM MST
Astronomical Twilight 6:47 AM MST 7:03 PM MST
Moon 9:54 AM MST (1/14) 9:27 PM MST (1/14)
Length of Visible Light 9h 23m
Length of Day
8h 00m
Waxing Crescent, 12% of the Moon is Illuminated
Jan 14
Waxing Crescent
Jan 18
First Quarter
Jan 26
Full
Feb 3
Last Quarter
Feb 10
New

Hourly Weather History & Observations

Time (MST) Temp. Windchill Dew Point Humidity Pressure Visibility Wind Dir Wind Speed Gust Speed Precip Events Conditions
12:00 AM 12.2 °F 6.1 °F 10.4 °F 92% 30.14 in 9.0 mi WSW 3.5 mph - N/A   Mostly Cloudy
1:00 AM 14.0 °F 8.2 °F 12.2 °F 93% 30.12 in 9.0 mi West 3.5 mph - N/A   Mostly Cloudy
2:00 AM 14.0 °F 5.1 °F 10.4 °F 86% 30.09 in 9.0 mi West 5.8 mph - N/A   Overcast
3:00 AM 12.2 °F 2.9 °F 10.4 °F 92% 30.05 in 9.0 mi West 5.8 mph - N/A   Mostly Cloudy
4:00 AM 12.2 °F 6.1 °F 10.4 °F 92% 30.02 in 9.0 mi WSW 3.5 mph - N/A   Overcast
5:00 AM 16 °F - 14 °F 86% 29.97 in 10 mi West 3.5 mph - -   Overcast
5:00 AM 15.8 °F 10.2 °F 14.0 °F 93% 29.97 in 9.0 mi WSW 3.5 mph - N/A   Overcast
6:00 AM 15.8 °F 8.6 °F 12.2 °F 86% 29.96 in 9.0 mi SW 4.6 mph - N/A   Overcast
7:00 AM 17.6 °F - 14.0 °F 86% 29.95 in 9.0 mi Calm Calm - N/A   Overcast
7:01 AM 17.6 °F - 14.0 °F 86% 29.95 in 9.0 mi Calm Calm - N/A Snow Light Snow
8:00 AM 19.4 °F 14.3 °F 15.8 °F 86% 29.95 in 9.0 mi South 3.5 mph - N/A Snow Light Snow
8:19 AM 19.4 °F 11.5 °F 15.8 °F 86% 29.94 in 5.0 mi South 5.8 mph - N/A Snow Light Snow
8:26 AM 19.4 °F 12.8 °F 17.6 °F 93% 29.94 in 7.0 mi South 4.6 mph - N/A Snow Light Snow
9:00 AM 23.0 °F 17.0 °F 19.4 °F 86% 29.94 in 9.0 mi SSW 4.6 mph - N/A Snow Light Snow
10:00 AM 28.4 °F 19.7 °F 24.8 °F 86% 29.91 in 7.0 mi WSW 9.2 mph - N/A Snow Light Snow
10:48 AM 30.2 °F 21.3 °F 24.8 °F 80% 29.90 in 9.0 mi West 10.4 mph - N/A   Scattered Clouds
11:00 AM 30 °F - 25 °F 75% 29.91 in 10 mi West 9.2 mph - -  
11:00 AM 30.2 °F 21.3 °F 24.8 °F 80% 29.91 in 9.0 mi West 10.4 mph 17.3 mph N/A   Mostly Cloudy
11:09 AM 30.2 °F 21.9 °F 24.8 °F 80% 29.91 in 9.0 mi West 9.2 mph 17.3 mph N/A Snow Light Snow
11:39 AM 32.0 °F 23.0 °F 26.6 °F 80% 29.92 in 9.0 mi West 11.5 mph - N/A Snow Light Snow
11:43 AM 32.0 °F 23.0 °F 26.6 °F 80% 29.92 in 9.0 mi West 11.5 mph 18.4 mph N/A Rain , Snow Light Snow
11:44 AM 32.0 °F 23.0 °F 26.6 °F 80% 29.91 in 9.0 mi West 11.5 mph 18.4 mph N/A Rain Light Rain
11:48 AM 32.0 °F 23.6 °F 26.6 °F 80% 29.92 in 9.0 mi West 10.4 mph 18.4 mph N/A Rain Light Rain
12:00 PM 33.8 °F 25.3 °F 26.6 °F 75% 29.93 in 9.0 mi West 11.5 mph 17.3 mph N/A Rain Light Rain
12:02 PM 33.8 °F 25.3 °F 26.6 °F 75% 29.93 in 9.0 mi West 11.5 mph 17.3 mph N/A Rain , Snow Light Snow
12:07 PM 33.8 °F 24.3 °F 28.4 °F 81% 29.92 in 9.0 mi West 13.8 mph 19.6 mph N/A Snow Light Snow
12:12 PM 33.8 °F 25.3 °F 28.4 °F 81% 29.92 in 9.0 mi West 11.5 mph 19.6 mph N/A Snow Light Snow
12:17 PM 33.8 °F 25.3 °F 28.4 °F 81% 29.92 in 9.0 mi West 11.5 mph 18.4 mph N/A   Overcast
12:18 PM 33.8 °F 25.8 °F 28.4 °F 81% 29.92 in 9.0 mi West 10.4 mph 18.4 mph N/A Rain Light Rain
12:23 PM 33.8 °F 25.8 °F 28.4 °F 81% 29.92 in 9.0 mi West 10.4 mph 17.3 mph N/A Rain Light Rain
12:43 PM 35.6 °F 27.5 °F 28.4 °F 75% 29.91 in 9.0 mi West 11.5 mph 17.3 mph N/A   Overcast
1:00 PM 35.6 °F 27.1 °F 28.4 °F 75% 29.91 in 9.0 mi West 12.7 mph 24.2 mph N/A   Overcast
2:00 PM 35.6 °F 29.2 °F 26.6 °F 70% 29.92 in 9.0 mi WSW 8.1 mph - N/A   Overcast
3:00 PM 35.6 °F 30.7 °F 26.6 °F 70% 29.94 in 9.0 mi WSW 5.8 mph - N/A   Mostly Cloudy
4:00 PM 35.6 °F 28.0 °F 26.6 °F 70% 29.94 in 9.0 mi West 10.4 mph - N/A   Mostly Cloudy
5:00 PM 34 °F - 25 °F 58% 29.94 in 10 mi West 11.5 mph - -   Clear
5:00 PM 33.8 °F 24.8 °F 24.8 °F 70% 29.94 in 9.0 mi West 12.7 mph - N/A   Scattered Clouds
6:00 PM 35.6 °F 28.6 °F 24.8 °F 65% 29.92 in 9.0 mi West 9.2 mph - N/A   Mostly Cloudy
7:00 PM 33.8 °F 25.8 °F 24.8 °F 70% 29.93 in 9.0 mi West 10.4 mph - N/A   Mostly Cloudy
8:00 PM 37.4 °F 30.3 °F 24.8 °F 60% 29.92 in 9.0 mi West 10.4 mph - N/A   Mostly Cloudy
9:00 PM 37.4 °F 30.3 °F 24.8 °F 60% 29.91 in 9.0 mi West 10.4 mph - N/A   Mostly Cloudy
10:00 PM 37.4 °F 32.1 °F 26.6 °F 65% 29.90 in 9.0 mi WSW 6.9 mph - N/A   Mostly Cloudy
11:00 PM 38 °F - 26 °F 49% 29.87 in 10 mi WSW 9.2 mph - -   Clear
11:00 PM 37.4 °F 30.8 °F 24.8 °F 60% 29.87 in 9.0 mi WSW 9.2 mph - N/A   Partly Cloudy